Franklin, NC

10:23 PM EDT on May 23, 2017 (GMT -0400)
Franklin

Weather History for K1A5 - December, 2010

Change the Weather History Date:

Tuesday, December 28, 2010

  Actual Average (KTOC) Record (KTOC)
Temperature  
Mean Temperature 20 °F -  
Max Temperature 39 °F 53 °F 70 °F (2015)
Min Temperature 0 °F 33 °F 30 °F (2013)
Degree Days  
Heating Degree Days 46    
Moisture  
Dew Point 9 °F    
Average Humidity 75    
Maximum Humidity 91    
Minimum Humidity 31    
Precipitation  
Precipitation 0.00 in - - ()
Sea Level Pressure  
Sea Level Pressure 30.19 in    
Wind  
Wind Speed 0 mph (South)    
Max Wind Speed 4 mph    
Max Gust Speed -    
Visibility 10 miles    
Events      
Averages and records for this station are not official NWS values.
T = Trace of Precipitation, MM = Missing Value Source: NWS Daily Summary

Daily Weather History Graph

Daily Weather History Graph

Search for Another Location

Airport or City:

Trip Planner

Search our weather history database for the weather conditions in past years. The results will help you decide how hot, cold, wet, or windy it might be!

Date:

Astronomy

Dec. 28, 2010 Rise Set
Actual Time 7:41 AM EST 5:29 PM EST
Civil Twilight 7:13 AM EST 5:57 PM EST
Nautical Twilight 6:41 AM EST 6:29 PM EST
Astronomical Twilight 6:10 AM EST 7:00 PM EST
Moon 12:48 AM EST (12/28) 12:18 PM EST (12/28)
Length of Visible Light 10h 44m
Length of Day
9h 48m
Last Quarter, 44% of the Moon is Illuminated
Dec 28
Last Quarter
Jan 4
New
Jan 12
First Quarter
Jan 19
Full
Jan 26
Last Quarter

Hourly Weather History & Observations

Time (EST) Temp. Windchill Dew Point Humidity Pressure Visibility Wind Dir Wind Speed Gust Speed Precip Events Conditions
12:00 AM 7.7 °F - 4.5 °F 87% 30.25 in 10.0 mi Calm Calm - N/A   Clear
12:20 AM 7.5 °F - 4.3 °F 87% 30.25 in 10.0 mi Calm Calm - N/A   Clear
1:00 AM 5.9 °F - 2.3 °F 85% 30.23 in 10.0 mi Calm Calm - N/A   Clear
1:40 AM 5.7 °F - 2.1 °F 85% 30.23 in 10.0 mi Calm Calm - N/A   Clear
2:00 AM 4.6 °F - 0.7 °F 84% 30.22 in 10.0 mi Calm Calm - N/A   Clear
2:20 AM 4.6 °F - 0.5 °F 83% 30.22 in 10.0 mi Calm Calm - N/A   Clear
3:00 AM 4.6 °F - 0.5 °F 83% 30.22 in 10.0 mi Calm Calm - N/A   Clear
3:20 AM 3.9 °F - -0.6 °F 82% 30.22 in 10.0 mi Calm Calm - N/A   Clear
4:00 AM 3.2 °F - -1.1 °F 82% 30.23 in 10.0 mi Calm Calm - N/A   Clear
4:20 AM 3.9 °F - -0.4 °F 82% 30.23 in 10.0 mi Calm Calm - N/A   Clear
4:40 AM 2.5 °F - -2.4 °F 80% 30.23 in 10.0 mi Calm Calm - N/A   Clear
5:00 AM 2.7 °F - -1.8 °F 81% 30.23 in 10.0 mi Calm Calm - N/A   Clear
5:20 AM 2.8 °F - -1.5 °F 82% 30.23 in 10.0 mi Calm Calm - N/A   Clear
5:40 AM 1.6 °F - -3.1 °F 81% 30.24 in 10.0 mi Calm Calm - N/A   Clear
6:00 AM 1.2 °F - -3.5 °F 81% 30.23 in 10.0 mi Calm Calm - N/A   Clear
6:20 AM 0.9 °F - -3.8 °F 81% 30.24 in 10.0 mi Calm Calm - N/A   Clear
6:40 AM 1.8 °F - -2.7 °F 81% 30.24 in 10.0 mi Calm Calm - N/A   Clear
7:20 AM 0.3 °F - -4.4 °F 81% 30.25 in 10.0 mi Calm Calm - N/A   Clear
7:40 AM 0.7 °F - -3.8 °F 81% 30.26 in 10.0 mi Calm Calm - N/A   Clear
8:00 AM 0.7 °F - -3.8 °F 81% 30.26 in 10.0 mi Calm Calm - N/A   Clear
8:20 AM 0.3 °F - -4.0 °F 82% 30.26 in 10.0 mi Calm Calm - N/A   Clear
8:40 AM 1.9 °F - -2.7 °F 81% 30.27 in 10.0 mi Calm Calm - N/A   Clear
9:00 AM 2.8 °F - -1.5 °F 82% 30.27 in 10.0 mi Calm Calm - N/A   Clear
9:20 AM 6.3 °F - 2.3 °F 84% 30.27 in 10.0 mi Calm Calm - N/A   Clear
9:40 AM 7.9 °F - 4.1 °F 85% 30.27 in 10.0 mi Calm Calm - N/A   Clear
10:20 AM 13.8 °F - 10.2 °F 86% 30.26 in 10.0 mi Calm Calm - N/A   Clear
10:40 AM 16.5 °F - 13.1 °F 86% 30.25 in 10.0 mi Calm Calm - N/A   Clear
11:00 AM 18.3 °F - 14.7 °F 86% 30.25 in 10.0 mi Calm Calm - N/A   Clear
11:20 AM 21.6 °F - 16.7 °F 82% 30.24 in 10.0 mi Calm Calm - N/A   Clear
11:40 AM 25.0 °F - 14.0 °F 63% 30.22 in 10.0 mi Calm Calm - N/A   Clear
12:00 PM 26.8 °F - 12.9 °F 56% 30.21 in 10.0 mi Calm Calm - N/A   Clear
12:20 PM 29.8 °F - 12.9 °F 49% 30.20 in 10.0 mi Calm Calm - N/A   Clear
12:40 PM 30.2 °F - 13.1 °F 49% 30.19 in 10.0 mi Calm Calm - N/A   Clear
1:00 PM 32.0 °F - 12.0 °F 44% 30.16 in 10.0 mi Calm Calm - N/A   Clear
1:20 PM 31.3 °F - 13.5 °F 48% 30.15 in 10.0 mi Calm Calm - N/A   Clear
1:40 PM 32.0 °F - 13.8 °F 47% 30.14 in 10.0 mi Calm Calm - N/A   Clear
2:00 PM 34.0 °F - 14.7 °F 45% 30.13 in 10.0 mi Calm Calm - N/A   Clear
2:20 PM 35.6 °F 32.8 °F 14.4 °F 42% 30.12 in 10.0 mi North 3.5 mph - N/A   Clear
2:40 PM 36.7 °F - 14.4 °F 40% 30.12 in 10.0 mi Calm Calm - N/A   Clear
3:00 PM 37.6 °F - 11.5 °F 34% 30.11 in 10.0 mi Calm Calm - N/A   Clear
3:20 PM 38.5 °F - 11.7 °F 33% 30.11 in 10.0 mi Calm Calm - N/A   Clear
3:40 PM 39.7 °F - 11.3 °F 31% 30.11 in 10.0 mi Calm Calm - N/A   Clear
4:00 PM 37.0 °F - 18.7 °F 48% 30.11 in 10.0 mi Calm Calm - N/A   Clear
4:20 PM 34.3 °F - 21.7 °F 60% 30.11 in 10.0 mi Calm Calm - N/A   Clear
4:40 PM 31.3 °F - 22.1 °F 69% 30.11 in 10.0 mi Calm Calm - N/A   Clear
5:00 PM 29.8 °F - 22.1 °F 73% 30.11 in 10.0 mi Calm Calm - N/A   Clear
5:20 PM 28.0 °F - 21.9 °F 78% 30.11 in 10.0 mi Calm Calm - N/A   Clear
6:00 PM 25.5 °F - 19.2 °F 77% 30.13 in 10.0 mi Calm Calm - N/A   Clear
6:20 PM 23.2 °F - 18.9 °F 84% 30.13 in 10.0 mi Calm Calm - N/A   Clear
7:00 PM 21.0 °F - 17.8 °F 87% 30.14 in 10.0 mi Calm Calm - N/A   Clear
7:20 PM 19.6 °F - 16.7 °F 89% 30.13 in 10.0 mi Calm Calm - N/A   Clear
7:40 PM 18.5 °F - 16.2 °F 91% 30.14 in 10.0 mi Calm Calm - N/A   Clear
8:00 PM 18.1 °F - 15.6 °F 90% 30.14 in 10.0 mi Calm Calm - N/A   Clear
8:20 PM 17.6 °F - 14.9 °F 89% 30.14 in 10.0 mi Calm Calm - N/A   Clear
8:40 PM 16.2 °F - 13.8 °F 90% 30.14 in 10.0 mi Calm Calm - N/A   Clear
9:00 PM 15.6 °F - 13.1 °F 90% 30.15 in 10.0 mi Calm Calm - N/A   Clear
9:20 PM 14.9 °F - 12.4 °F 90% 30.16 in 10.0 mi Calm Calm - N/A   Clear
9:40 PM 14.5 °F - 11.8 °F 89% 30.16 in 10.0 mi Calm Calm - N/A   Clear
10:00 PM 14.5 °F - 12.0 °F 90% 30.16 in 10.0 mi Calm Calm - N/A   Clear
10:20 PM 13.8 °F - 11.1 °F 89% 30.16 in 10.0 mi Calm Calm - N/A   Clear
10:40 PM 14.5 °F - 11.8 °F 89% 30.16 in 10.0 mi Calm Calm - N/A   Clear
11:20 PM 13.8 °F - 10.9 °F 88% 30.15 in 10.0 mi Calm Calm - N/A   Clear
11:40 PM 13.1 °F - 10.0 °F 88% 30.14 in 10.0 mi Calm Calm - N/A   Clear